{"data":{"norad_id":36868,"intl_designator":"2010-039A","name":"AEHF-1 (USA 214)","alt_names":[],"object_type":"PAYLOAD","status":"ACTIVE","operator":null,"country":"US","launch_date":"2010-08-14","launch_site_code":"AFETR","launch_vehicle":null,"mission":null,"orbit_class":"UNKNOWN","rcs_meters":7.9433,"size_class":null,"mass_kg":null,"dimensions":null,"purposes":["comms"],"wikipedia_slug":null,"has_3d_model":false,"image_url":null,"decayed_at":null,"tle_current":{"epoch":"2026-09-19T17:32:59.941248Z","epoch_age_seconds":84728,"freshness":"FRESH","line1":"1 36868U 10039A   26262.73124932  .00000146  00000+0  00000+0 0  9992","line2":"2 36868   8.4562  66.8024 0003872 114.5852 110.5466  1.00267240 54600","mean_motion":1.0026724,"eccentricity":0.0003872,"inclination_deg":8.4562,"raan_deg":66.8024,"arg_perigee_deg":114.5852,"mean_anomaly_deg":110.5466,"bstar":0,"rev_number":5460,"period_min":1436.1620006694,"perigee_km":35771.542460231,"apogee_km":35804.195815384,"semimajor_km":42166.006137808,"source":"CELESTRAK","updated_at":"2026-09-20T09:00:35.165135Z"}}}